Location: Overspoor
(51.4747°N, 5.6641°E)
Time: 15:32:52
(UTC+02:00)

OTV 5 (USA 277) - Visible Passes

Search period start: 18 June 2018 00:00
Search period end: 28 June 2018 00:00
Orbit: 313 x 320 km, 54.5° (Epoch: 16 June)

Date Brightness Start Highest point End Pass type
(mag) Time Alt. Az. Time Alt. Az. Time Alt. Az.
18 Jun ? 00:15:02 10° W 00:17:42 59° NNW 00:20:24 10° ENE visible
18 Jun ? 01:49:41 10° WNW 01:52:17 41° N 01:54:54 10° ENE visible
18 Jun ? 03:24:02 10° WNW 03:26:45 80° SSW 03:29:28 10° ESE visible
18 Jun ? 22:55:12 10° SW 22:57:52 60° SSE 23:00:33 10° ENE visible
19 Jun ? 00:29:39 10° W 00:32:16 44° N 00:34:53 10° ENE visible
19 Jun ? 02:04:11 10° WNW 02:06:52 50° NNE 02:09:32 10° E visible
19 Jun ? 03:38:33 10° WNW 03:41:09 40° SSW 03:43:44 10° SE visible
19 Jun ? 23:09:37 10° WSW 23:12:19 75° NNW 23:15:02 10° ENE visible
20 Jun ? 00:44:15 10° WNW 00:46:51 40° N 00:49:27 10° ENE visible
20 Jun ? 02:18:39 10° WNW 02:21:22 77° NNE 02:24:06 10° ESE visible
20 Jun ? 03:53:20 10° W 03:55:26 20° SW 03:57:33 10° SSE visible
20 Jun ? 23:24:12 10° W 23:26:50 50° NNW 23:29:30 10° ENE visible
21 Jun ? 00:58:48 10° WNW 01:01:26 44° N 01:04:04 10° E visible
21 Jun ? 02:33:09 10° WNW 02:35:49 58° SSW 02:37:45 17° SE visible
21 Jun ? 23:38:49 10° WNW 23:41:25 41° N 23:44:01 10° ENE visible
22 Jun ? 01:13:18 10° WNW 01:15:59 60° NNE 01:18:41 10° E visible
22 Jun ? 02:47:45 10° W 02:49:41 26° WSW 02:49:41 26° WSW visible
22 Jun ? 23:53:24 10° WNW 23:56:00 41° N 23:58:37 10° ENE visible
23 Jun ? 01:27:45 10° WNW 01:30:29 81° SSW 01:31:37 31° ESE visible
24 Jun ? 00:07:55 10° WNW 00:10:35 50° NNE 00:13:15 10° E visible
24 Jun ? 01:42:18 10° WNW 01:44:39 40° SW 01:44:39 40° SW visible
24 Jun ? 22:47:59 10° WNW 22:50:34 40° N 22:53:11 10° ENE visible
25 Jun ? 00:22:23 10° WNW 00:25:07 76° NNE 00:27:03 17° ESE visible
25 Jun ? 01:57:03 10° W 01:57:53 15° WSW 01:57:53 15° WSW visible
25 Jun ? 23:02:32 10° WNW 23:05:10 44° N 23:07:47 10° E visible
26 Jun ? 00:36:52 10° WNW 00:39:33 59° SSW 00:40:22 37° SE visible
26 Jun ? 23:17:02 10° WNW 23:19:43 60° NNE 23:22:24 10° E visible
27 Jun ? 00:51:29 10° W 00:53:47 29° SW 00:53:47 29° SW visible
27 Jun ? 23:31:29 10° WNW 23:34:12 82° SSW 23:36:25 14° ESE visible
